Tracking 30505 objects as of 23-May-2025
HD Live streaming from Space Station
objects crossing your sky now

CZ-4B R/B

Track CZ-4B R/B now!
10-day predictions


NORAD ID: 43656
Int'l Code: 2018-081B
Perigee: 646.8 km
Apogee: 940.0 km
Inclination: 99.4 °
Period: 100.6 minutes
Semi major axis: 7164 km
RCS: Unknown
Launch date: October 24, 2018
Source: People's Republic of China (PRC)
Launch site: Taiyaun Space Center, China (TSC)

Note: This is a ROCKET BODY
Your satellite tracking list
Your tracking list is empty




NASA's NSSDC Master Catalog

Two Line Element Set (TLE):
1 43656U 18081B   25143.37516221  .00000129  00000-0  56422-4 0  9999
2 43656  99.3990  24.8560 0204596 309.3487  48.9718 14.31641925343520
Source of the keplerian elements: AFSPC